CW0214 Abrantes PT current weather conditions

sailwx.info

Wind from 246 at 5 knots gusting 10

Air temperature 25.0° C
Dewpoint 18.4° C

Last reported at 2020-Aug-08 10:04 UTC.
Time now 2020-Aug-08 11:14 UTC

Location: N 39°28' W 008°12'.
View on Google Maps.

See reports from other nearby stations

  
Tides and Currents Weather Stations Pressure Air Temp Water Temp Dewpoint Dewpoint Depression Visibility Wind Speed Wind Dir Waves Ship Positions
date/time (UTC)wind fromknots sea level pressurealtimeterstation pressurevisibilityair tempwater tempwave heightnotes
2020-Aug-08 10:04 246 5 gusting 10 25.0
2020-Aug-08 09:59 203 2 gusting 6 24.4
2020-Aug-08 09:54 303 2 gusting 7 23.9
2020-Aug-08 09:49 248 5 gusting 6 23.9
2020-Aug-08 09:44 224 1 gusting 6 23.3
2020-Aug-08 09:39 241 1 gusting 6 23.3
2020-Aug-08 09:34 249 5 gusting 6 23.3
2020-Aug-08 09:29 227 3 gusting 6 22.8
2020-Aug-08 09:24 217 2 gusting 6 22.8
2020-Aug-08 09:19 168 4 gusting 8 22.8
2020-Aug-08 09:14 238 4 gusting 6 22.8
2020-Aug-08 09:09 235 0 gusting 6 22.8
2020-Aug-08 09:04 219 1 gusting 7 22.2
2020-Aug-08 08:59 229 3 gusting 7 22.2
2020-Aug-08 08:54 238 1 gusting 6 21.7
2020-Aug-08 08:49 269 0 gusting 6 21.7
2020-Aug-08 08:44 225 4 gusting 6 21.7
2020-Aug-08 08:39 197 21.7
2020-Aug-08 08:34 272 0 gusting 5 21.1
2020-Aug-08 08:29 294 2 gusting 6 21.1
2020-Aug-08 08:24 229 4 gusting 6 21.1
2020-Aug-08 08:19 234 21.1
2020-Aug-08 08:14 247 20.6
2020-Aug-08 08:09 230 0 gusting 5 20.6
2020-Aug-08 08:04 242 2 gusting 6 20.6
2020-Aug-08 07:59 267 0 gusting 6 20.6
2020-Aug-08 07:54 261 20.0
2020-Aug-08 07:49 185 20.0
2020-Aug-08 07:44 192 19.4
2020-Aug-08 07:39 265 0 gusting 6 19.4
2020-Aug-08 07:34 246 1 gusting 6 19.4
2020-Aug-08 07:29 253 0 gusting 6 18.9
2020-Aug-08 07:24 266 18.9
2020-Aug-08 07:19 267 0 gusting 4 18.9
2020-Aug-08 07:14 262 1 gusting 5 18.3
2020-Aug-08 07:09 278 1 gusting 6 18.3
2020-Aug-08 07:04 253 18.3
2020-Aug-08 06:59 18.3
2020-Aug-08 06:54 242 18.3
2020-Aug-08 06:49 155 18.3
2020-Aug-08 06:44 157 18.3
2020-Aug-08 06:39 201 18.3
2020-Aug-08 06:35 350 18.3
2020-Aug-08 06:29 242 18.3
2020-Aug-08 06:24 017 18.3
2020-Aug-08 06:19 300 18.3
2020-Aug-08 06:14 296 0 gusting 4 18.3
2020-Aug-08 06:09 225 18.3
2020-Aug-08 06:04 256 18.3
2020-Aug-08 05:59 293 1 gusting 5 18.3
2020-Aug-08 05:54 266 18.3
2020-Aug-08 05:49 225 18.3
2020-Aug-08 05:44 219 1 gusting 6 18.3
2020-Aug-08 05:39 277 18.3
2020-Aug-08 05:34 290 0 gusting 4 18.3
2020-Aug-08 05:29 287 2 gusting 6 18.3
2020-Aug-08 05:24 257 2 gusting 6 18.3
2020-Aug-08 05:19 213 18.3
2020-Aug-08 05:14 231 0 gusting 6 18.3
2020-Aug-08 05:09 272 1 gusting 5 18.3
2020-Aug-08 05:04 294 18.3
2020-Aug-08 04:59 247 1 gusting 5 18.3
2020-Aug-08 04:54 297 18.3
2020-Aug-08 04:49 270 2 gusting 5 18.3
2020-Aug-08 04:44 322 1 gusting 5 18.3
2020-Aug-08 04:39 260 0 gusting 6 18.3
2020-Aug-08 04:34 231 18.3
2020-Aug-08 04:29 217 0 gusting 2 18.3
2020-Aug-08 04:24 233 0 gusting 5 18.3
2020-Aug-08 04:19 210 18.3
2020-Aug-08 04:14 212 18.3
2020-Aug-08 04:09 314 18.3
2020-Aug-08 04:04 244 0 gusting 2 18.3
2020-Aug-08 03:59 269 0 gusting 2 18.3
2020-Aug-08 03:54 263 18.3
2020-Aug-08 03:49 278 18.3
2020-Aug-08 03:44 279 1 gusting 6 18.3
2020-Aug-08 03:39 253 0 gusting 4 18.3
2020-Aug-08 03:34 245 0 gusting 5 18.3
2020-Aug-08 03:29 268 18.3
2020-Aug-08 03:24 244 18.3
2020-Aug-08 03:19 264 0 gusting 6 18.3
2020-Aug-08 03:14 271 18.3
2020-Aug-08 03:09 317 18.3
2020-Aug-08 03:04 225 18.3
2020-Aug-08 02:59 271 2 gusting 7 18.3
2020-Aug-08 02:54 260 1 gusting 6 18.3
2020-Aug-08 02:49 271 1 gusting 6 18.3
2020-Aug-08 02:44 298 0 gusting 6 18.3
2020-Aug-08 02:39 196 18.3
2020-Aug-08 02:34 281 1 gusting 6 18.3
2020-Aug-08 02:29 231 18.3
2020-Aug-08 02:24 238 0 gusting 5 18.3
2020-Aug-08 02:19 319 0 gusting 5 18.3
2020-Aug-08 02:14 194 0 gusting 5 18.3
2020-Aug-08 02:09 271 2 gusting 6 18.3
2020-Aug-08 02:04 267 18.3
2020-Aug-08 01:59 281 18.3
2020-Aug-08 01:54 255 1 gusting 4 18.3
2020-Aug-08 01:49 270 2 gusting 6 18.3
2020-Aug-08 01:44 273 0 gusting 2 18.3
2020-Aug-08 01:39 253 0 gusting 5 18.3
2020-Aug-08 01:34 270 0 gusting 6 18.9
2020-Aug-08 01:29 261 18.9
2020-Aug-08 01:24 254 18.9
2020-Aug-08 01:19 232 0 gusting 6 18.9
2020-Aug-08 01:14 265 0 gusting 4 18.9
2020-Aug-08 01:09 275 2 gusting 10 18.9
2020-Aug-08 01:04 247 2 gusting 7 18.9
2020-Aug-08 00:59 257 3 gusting 6 18.9
2020-Aug-08 00:54 265 1 gusting 6 18.9
2020-Aug-08 00:49 260 2 gusting 8 19.4
2020-Aug-08 00:44 260 1 gusting 7 19.4
2020-Aug-08 00:39 260 0 gusting 7 19.4
2020-Aug-08 00:34 271 2 gusting 6 19.4
2020-Aug-08 00:29 249 3 gusting 7 19.4
2020-Aug-08 00:24 240 1 gusting 6 19.4
2020-Aug-08 00:19 267 2 gusting 7 19.4
2020-Aug-08 00:14 237 1 gusting 6 19.4
2020-Aug-08 00:09 273 1 gusting 6 20.0
2020-Aug-08 00:04 259 1 gusting 6 20.0
2020-Aug-07 23:59 262 2 gusting 6 20.0
2020-Aug-07 23:54 262 0 gusting 5 20.0
2020-Aug-07 23:49 285 3 gusting 7 20.0
2020-Aug-07 23:44 278 5 gusting 10 20.0
2020-Aug-07 23:39 262 1 gusting 6 20.6
2020-Aug-07 23:34 262 4 gusting 10 20.6
2020-Aug-07 23:29 246 4 gusting 7 20.6
2020-Aug-07 23:24 269 2 gusting 10 20.6
2020-Aug-07 23:19 267 0 gusting 5 21.1
2020-Aug-07 23:14 244 1 gusting 6 21.1
2020-Aug-07 23:09 256 0 gusting 5 21.1
2020-Aug-07 23:04 211 0 gusting 4 21.1
2020-Aug-07 22:59 215 0 gusting 4 21.7
2020-Aug-07 22:54 224 21.7
2020-Aug-07 22:49 214 0 gusting 5 21.7
2020-Aug-07 22:44 251 2 gusting 5 21.7
2020-Aug-07 22:39 244 1 gusting 7 21.7
2020-Aug-07 22:34 247 3 gusting 8 21.7
2020-Aug-07 22:29 230 1 gusting 6 21.7
2020-Aug-07 22:24 243 2 gusting 6 21.7
2020-Aug-07 22:19 255 1 gusting 6 22.2
2020-Aug-07 22:14 243 1 gusting 10 22.2
2020-Aug-07 22:09 264 4 gusting 10 22.2
2020-Aug-07 22:04 271 4 gusting 7 22.2
2020-Aug-07 21:59 270 4 gusting 6 22.2
2020-Aug-07 21:54 272 2 gusting 8 22.8
2020-Aug-07 21:49 276 3 gusting 7 22.8
2020-Aug-07 21:44 271 2 gusting 8 22.8
2020-Aug-07 21:39 264 2 gusting 8 22.8
2020-Aug-07 21:34 295 4 gusting 6 23.3
2020-Aug-07 21:29 279 23.3
2020-Aug-07 21:24 230 0 gusting 4 23.3
2020-Aug-07 21:19 287 0 gusting 4 23.3
2020-Aug-07 21:14 214 1 gusting 7 23.3
2020-Aug-07 21:09 211 23.3
2020-Aug-07 21:04 241 3 gusting 7 23.9
2020-Aug-07 20:59 241 2 gusting 8 23.9
2020-Aug-07 20:54 228 4 gusting 10 23.9
2020-Aug-07 20:49 240 0 gusting 8 23.9
2020-Aug-07 20:44 288 4 gusting 8 24.4
2020-Aug-07 20:39 235 1 gusting 6 24.4
2020-Aug-07 20:34 207 2 gusting 7 24.4
2020-Aug-07 20:29 245 6 gusting 10 24.4
2020-Aug-07 20:24 235 2 gusting 10 25.0
2020-Aug-07 20:19 249 1 gusting 7 25.0
2020-Aug-07 20:14 264 2 gusting 7 25.6
2020-Aug-07 20:09 271 1 gusting 5 25.6
2020-Aug-07 20:04 280 2 gusting 6 25.6
2020-Aug-07 19:59 275 1 gusting 8 26.1
2020-Aug-07 19:54 161 0 gusting 7 26.1
2020-Aug-07 19:49 271 2 gusting 10 26.1
2020-Aug-07 19:44 274 4 gusting 12 26.7
2020-Aug-07 19:39 247 26.7
2020-Aug-07 19:34 253 1 gusting 7 26.7
2020-Aug-07 19:29 260 2 gusting 11 27.2
2020-Aug-07 19:24 284 6 gusting 13 27.2
2020-Aug-07 19:19 261 6 gusting 10 27.8
2020-Aug-07 19:14 288 3 gusting 6 28.3
2020-Aug-07 19:09 279 5 gusting 8 28.3
2020-Aug-07 19:04 219 2 gusting 6 28.9
2020-Aug-07 18:59 273 2 gusting 7 28.9
2020-Aug-07 18:54 265 1 gusting 10 29.4
2020-Aug-07 18:49 274 0 gusting 10 29.4
2020-Aug-07 18:44 242 4 gusting 11 29.4
2020-Aug-07 18:39 247 0 gusting 10 30.0
2020-Aug-07 18:34 238 1 gusting 8 30.0
2020-Aug-07 18:29 238 5 gusting 7 30.6
2020-Aug-07 18:24 237 5 gusting 10 30.6
2020-Aug-07 18:19 211 4 gusting 10 31.1
2020-Aug-07 18:14 263 2 gusting 8 31.7
2020-Aug-07 18:09 258 4 gusting 13 31.7
2020-Aug-07 18:04 258 4 gusting 10 31.7
2020-Aug-07 17:59 226 1 gusting 11 32.2
2020-Aug-07 17:54 218 6 gusting 10 32.2
2020-Aug-07 17:49 229 2 gusting 10 32.8
2020-Aug-07 17:44 237 5 gusting 12 32.8
2020-Aug-07 17:39 242 3 gusting 10 33.3
2020-Aug-07 17:34 248 5 gusting 13 33.3
2020-Aug-07 17:29 195 2 gusting 12 33.3
2020-Aug-07 17:24 235 6 gusting 13 33.9
2020-Aug-07 17:19 226 1 gusting 8 33.9
2020-Aug-07 17:14 240 4 gusting 11 34.4
2020-Aug-07 17:09 245 2 gusting 12 34.4
2020-Aug-07 17:04 228 4 gusting 10 35.0
2020-Aug-07 16:59 237 5 gusting 10 35.0
2020-Aug-07 16:54 261 6 gusting 12 35.0
2020-Aug-07 16:49 259 5 gusting 11 35.0
2020-Aug-07 16:44 221 2 gusting 10 35.0
2020-Aug-07 16:39 257 8 gusting 13 35.6
2020-Aug-07 16:34 242 4 gusting 8 35.6
2020-Aug-07 16:29 200 1 gusting 7 35.6
2020-Aug-07 16:24 248 4 gusting 10 35.6
2020-Aug-07 16:19 283 35.6
2020-Aug-07 16:14 211 6 gusting 12 35.6
2020-Aug-07 16:09 269 0 gusting 6 35.6
2020-Aug-07 16:04 235 2 gusting 8 35.6
2020-Aug-07 15:59 252 1 gusting 10 35.6
2020-Aug-07 15:54 275 3 gusting 10 35.6
2020-Aug-07 15:49 231 4 gusting 10 35.6
2020-Aug-07 15:44 255 2 gusting 10 35.6
2020-Aug-07 15:39 253 0 gusting 6 35.6
2020-Aug-07 15:34 194 6 gusting 11 35.6
2020-Aug-07 15:29 253 5 gusting 13 35.6
2020-Aug-07 15:24 235 1 gusting 11 35.6
2020-Aug-07 15:19 212 6 gusting 15 35.6
2020-Aug-07 15:14 228 6 gusting 11 35.6
2020-Aug-07 15:09 238 2 gusting 11 35.6
2020-Aug-07 15:04 223 4 gusting 10 35.6
2020-Aug-07 14:59 276 2 gusting 8 35.6
2020-Aug-07 14:54 314 4 gusting 12 35.6
2020-Aug-07 14:49 241 1 gusting 12 35.6
2020-Aug-07 14:44 236 2 gusting 10 35.6
2020-Aug-07 14:39 230 6 gusting 10 35.6
2020-Aug-07 14:34 223 6 gusting 10 35.0
2020-Aug-07 14:29 274 4 gusting 10 35.6
2020-Aug-07 14:24 200 1 gusting 10 35.6
2020-Aug-07 14:19 239 0 gusting 10 35.6
2020-Aug-07 14:14 265 1 gusting 10 35.6
2020-Aug-07 14:09 239 6 gusting 10 35.6
2020-Aug-07 14:04 232 5 gusting 13 36.1
2020-Aug-07 13:59 227 4 gusting 13 36.1
2020-Aug-07 13:54 295 36.1
2020-Aug-07 13:49 248 1 gusting 6 35.6
2020-Aug-07 13:44 319 4 gusting 5 35.6
2020-Aug-07 13:39 289 2 gusting 6 36.1
2020-Aug-07 13:34 246 35.6
2020-Aug-07 13:29 236 1 gusting 7 35.6
2020-Aug-07 13:24 241 0 gusting 6 35.0
2020-Aug-07 13:19 184 0 gusting 6 34.4
2020-Aug-07 13:14 251 5 gusting 10 33.9
2020-Aug-07 13:09 263 4 gusting 7 34.4
2020-Aug-07 13:04 256 1 gusting 6 34.4
2020-Aug-07 12:59 236 34.4
2020-Aug-07 12:54 286 6 gusting 8 35.0
2020-Aug-07 12:49 266 0 gusting 6 35.0
2020-Aug-07 12:44 297 34.4
2020-Aug-07 12:39 345 33.9
2020-Aug-07 12:34 214 0 gusting 6 33.3
2020-Aug-07 12:29 320 2 gusting 11 32.8
2020-Aug-07 12:24 066 0 gusting 6 32.8
2020-Aug-07 12:19 214 33.3
2020-Aug-07 12:14 340 1 gusting 4 33.3
2020-Aug-07 12:09 136 33.9
2020-Aug-07 12:04 259 0 gusting 4 33.9
2020-Aug-07 11:59 256 33.3
2020-Aug-07 11:54 184 32.8
2020-Aug-07 11:49 262 32.8
2020-Aug-07 11:44 238 32.8
2020-Aug-07 11:39 247 0 gusting 6 32.2
2020-Aug-07 11:34 260 1 gusting 7 32.2
2020-Aug-07 11:29 217 31.7
2020-Aug-07 11:24 155 31.1
2020-Aug-07 11:19 157 0 gusting 4 31.1
2020-Aug-07 11:14 188 31.1
2020-Aug-07 11:09 171 4 gusting 6 31.1
2020-Aug-07 11:04 174 2 gusting 6 31.1
2020-Aug-07 10:59 189 30.6
2020-Aug-07 10:54 291 2 gusting 6 30.6
2020-Aug-07 10:49 314 30.0
2020-Aug-07 10:44 319 29.4
2020-Aug-07 10:39 267 29.4
2020-Aug-07 10:34 229 28.9
2020-Aug-07 10:29 330 28.3
2020-Aug-07 10:24 260 3 gusting 6 28.3
2020-Aug-07 10:19 227 27.8
2020-Aug-07 10:14 294 0 gusting 5 27.2
2020-Aug-07 10:09 325 0 gusting 5 27.2
2020-Aug-07 10:04 249 0 gusting 5 27.2
2020-Aug-07 09:59 226 0 gusting 4 26.7
2020-Aug-07 09:54 022 26.7
2020-Aug-07 09:49 236 26.1
2020-Aug-07 09:44 215 1 gusting 6 26.1
2020-Aug-07 09:39 260 0 gusting 6 25.6
2020-Aug-07 09:34 286 0 gusting 7 25.6
2020-Aug-07 09:29 109 0 gusting 5 25.6
2020-Aug-07 09:24 331 0 gusting 7 25.0
2020-Aug-07 09:19 233 0 gusting 5 24.4
2020-Aug-07 09:14 341 0 gusting 2 23.9
2020-Aug-07 09:09 198 23.3
2020-Aug-07 09:04 267 0 gusting 5 23.3
2020-Aug-07 08:59 210 0 gusting 5 22.8
2020-Aug-07 08:54 355 22.2
2020-Aug-07 08:49 265 0 gusting 7 22.8
2020-Aug-07 08:44 271 0 gusting 6 22.8
2020-Aug-07 08:39 266 22.2
2020-Aug-07 08:34 263 22.2
2020-Aug-07 08:29 242 0 gusting 6 22.2
2020-Aug-07 08:24 311 22.2
2020-Aug-07 08:19 199 21.7
2020-Aug-07 08:14 300 0 gusting 6 21.1
2020-Aug-07 08:09 260 21.1
2020-Aug-07 08:04 261 1 gusting 6 21.1
2020-Aug-07 07:59 194 21.1
2020-Aug-07 07:54 248 0 gusting 6 20.6
2020-Aug-07 07:49 227 0 gusting 10 20.6
2020-Aug-07 07:44 297 1 gusting 6 20.6
2020-Aug-07 07:39 264 2 gusting 6 20.0
2020-Aug-07 07:34 213 20.0
2020-Aug-07 07:29 240 19.4
2020-Aug-07 07:24 259 0 gusting 6 19.4
2020-Aug-07 07:19 326 0 gusting 6 18.9
2020-Aug-07 07:14 270 0 gusting 6 18.9
2020-Aug-07 07:09 287 1 gusting 6 18.9
2020-Aug-07 07:04 255 2 gusting 6 18.3
2020-Aug-07 06:59 259 0 gusting 6 18.3
2020-Aug-07 06:54 256 18.3
2020-Aug-07 06:49 238 1 gusting 5 18.3
2020-Aug-07 06:44 250 0 gusting 4 18.3
2020-Aug-07 06:39 254 0 gusting 5 18.3
2020-Aug-07 06:34 238 2 gusting 5 18.3
2020-Aug-07 06:29 263 2 gusting 5 18.3
2020-Aug-07 06:19 285 18.3
2020-Aug-07 06:14 278 18.3
2020-Aug-07 06:09 286 0 gusting 6 18.3
2020-Aug-07 06:04 231 17.8
2020-Aug-07 05:59 198 0 gusting 6 17.8
2020-Aug-07 05:54 223 17.8
2020-Aug-07 05:49 294 18.3
2020-Aug-07 05:44 300 0 gusting 5 17.8
2020-Aug-07 05:39 279 0 gusting 4 18.3
2020-Aug-07 05:34 280 18.3
2020-Aug-07 05:29 283 0 gusting 4 18.3
2020-Aug-07 05:24 281 0 gusting 0 18.3
2020-Aug-07 05:19 283 1 gusting 4 18.3
2020-Aug-07 05:14 281 18.3
2020-Aug-07 05:09 285 18.3
2020-Aug-07 05:04 289 1 gusting 5 18.3
2020-Aug-07 04:59 298 0 gusting 5 18.3
2020-Aug-07 04:54 320 18.3
2020-Aug-07 04:49 320 18.3
2020-Aug-07 04:44 276 18.3
2020-Aug-07 04:39 317 1 gusting 6 18.3
2020-Aug-07 04:34 329 0 gusting 5 18.3
2020-Aug-07 04:29 353 2 gusting 6 18.3
2020-Aug-07 04:24 284 1 gusting 6 18.3
2020-Aug-07 04:19 324 18.3
2020-Aug-07 04:14 333 0 gusting 4 18.3
2020-Aug-07 04:09 272 0 gusting 6 18.3
2020-Aug-07 04:04 246 18.3
2020-Aug-07 03:59 268 18.3
2020-Aug-07 03:54 295 18.3
2020-Aug-07 03:49 288 0 gusting 4 18.3
2020-Aug-07 03:44 267 1 gusting 6 18.3
2020-Aug-07 03:39 294 2 gusting 6 18.3
2020-Aug-07 03:34 271 1 gusting 6 18.9
2020-Aug-07 03:29 246 18.9
2020-Aug-07 03:24 219 1 gusting 6 18.9
2020-Aug-07 03:19 264 2 gusting 6 18.9
2020-Aug-07 03:14 281 1 gusting 8 18.9
2020-Aug-07 03:09 254 0 gusting 6 18.9
2020-Aug-07 03:04 239 18.9
2020-Aug-07 02:59 266 18.9
2020-Aug-07 02:54 251 1 gusting 6 18.9
2020-Aug-07 02:49 234 1 gusting 2 18.9
2020-Aug-07 02:44 272 0 gusting 5 18.9
2020-Aug-07 02:39 240 18.9
2020-Aug-07 02:34 237 18.9
2020-Aug-07 02:29 236 18.9
2020-Aug-07 02:24 236 18.9
2020-Aug-07 02:19 247 18.9
2020-Aug-07 02:14 267 18.9
2020-Aug-07 02:09 267 18.9
2020-Aug-07 02:04 271 0 gusting 4 18.9
2020-Aug-07 01:59 273 0 gusting 2 18.9
2020-Aug-07 01:54 252 18.9
2020-Aug-07 01:49 215 18.9
2020-Aug-07 01:44 192 18.9
2020-Aug-07 01:39 181 19.4
2020-Aug-07 01:34 260 1 gusting 5 19.4
2020-Aug-07 01:29 227 19.4
2020-Aug-07 01:24 287 19.4
2020-Aug-07 01:19 234 1 gusting 6 19.4
2020-Aug-07 01:14 293 2 gusting 7 19.4
2020-Aug-07 01:09 309 4 gusting 6 19.4
2020-Aug-07 01:04 187 19.4
2020-Aug-07 00:59 274 4 gusting 7 19.4
2020-Aug-07 00:54 264 1 gusting 7 19.4
2020-Aug-07 00:49 222 19.4
2020-Aug-07 00:44 151 19.4
2020-Aug-07 00:39 234 1 gusting 6 19.4
2020-Aug-07 00:34 195 3 gusting 10 19.4
2020-Aug-07 00:24 234 4 gusting 7 19.4
2020-Aug-07 00:19 262 3 gusting 7 19.4
2020-Aug-07 00:14 302 0 gusting 5 20.0
2020-Aug-07 00:09 193 2 gusting 5 20.0
2020-Aug-07 00:04 235 3 gusting 6 20.0
2020-Aug-06 23:59 202 2 gusting 8 20.0
2020-Aug-06 23:54 288 1 gusting 6 20.0
2020-Aug-06 23:49 207 20.0
2020-Aug-06 23:44 260 2 gusting 6 20.6
2020-Aug-06 23:39 260 2 gusting 8 20.6
2020-Aug-06 23:34 264 2 gusting 8 20.6
2020-Aug-06 23:29 271 0 gusting 6 20.6
2020-Aug-06 23:24 237 0 gusting 6 20.6
2020-Aug-06 23:19 234 20.6
2020-Aug-06 23:14 239 20.6
2020-Aug-06 23:09 209 21.1
2020-Aug-06 23:04 220 21.1
2020-Aug-06 22:59 247 21.1
2020-Aug-06 22:54 268 1 gusting 6 21.1
2020-Aug-06 22:49 256 0 gusting 8 21.1
2020-Aug-06 22:44 243 1 gusting 6 21.1
2020-Aug-06 22:39 257 1 gusting 8 21.1
2020-Aug-06 22:34 271 2 gusting 7 21.7
2020-Aug-06 22:29 254 2 gusting 6 21.7
2020-Aug-06 22:19 260 1 gusting 8 21.7
2020-Aug-06 22:14 281 4 gusting 7 21.7
2020-Aug-06 22:09 247 2 gusting 8 22.2
2020-Aug-06 22:04 241 1 gusting 6 22.2
2020-Aug-06 21:59 262 3 gusting 7 22.2
2020-Aug-06 21:54 250 4 gusting 7 22.2
2020-Aug-06 21:49 254 1 gusting 6 22.8
2020-Aug-06 21:44 264 4 gusting 8 22.8
2020-Aug-06 21:39 231 1 gusting 6 22.8
2020-Aug-06 21:34 252 0 gusting 5 23.3
2020-Aug-06 21:29 285 23.3
2020-Aug-06 21:24 236 2 gusting 8 23.3
2020-Aug-06 21:19 250 2 gusting 7 23.3
2020-Aug-06 21:14 276 4 gusting 8 23.9
2020-Aug-06 21:09 336 1 gusting 6 23.9
2020-Aug-06 21:04 284 4 gusting 7 23.9
2020-Aug-06 20:59 278 2 gusting 8 24.4
2020-Aug-06 20:54 288 1 gusting 6 24.4
2020-Aug-06 20:49 172 24.4
2020-Aug-06 20:44 249 2 gusting 7 25.0
2020-Aug-06 20:39 207 25.0
2020-Aug-06 20:34 256 3 gusting 7 25.0
2020-Aug-06 20:29 192 25.0
2020-Aug-06 20:24 222 1 gusting 8 25.6
2020-Aug-06 20:19 278 1 gusting 6 25.6
2020-Aug-06 20:14 263 4 gusting 12 25.6
2020-Aug-06 20:09 254 3 gusting 12 26.1
2020-Aug-06 20:04 243 3 gusting 7 26.1
2020-Aug-06 19:59 253 3 gusting 8 26.1
2020-Aug-06 19:54 276 3 gusting 10 26.7
2020-Aug-06 19:49 266 2 gusting 8 26.7
2020-Aug-06 19:44 240 2 gusting 10 27.2
2020-Aug-06 19:39 283 2 gusting 7 27.2
2020-Aug-06 19:34 271 2 gusting 8 27.8
2020-Aug-06 19:29 231 0 gusting 8 27.8
2020-Aug-06 19:24 242 1 gusting 8 28.3
2020-Aug-06 19:19 242 0 gusting 8 28.3
2020-Aug-06 19:14 249 0 gusting 7 28.9
2020-Aug-06 19:09 222 3 gusting 8 28.9
2020-Aug-06 19:04 261 0 gusting 8 29.4
2020-Aug-06 18:59 222 29.4
2020-Aug-06 18:54 232 2 gusting 8 30.0
2020-Aug-06 18:49 240 1 gusting 8 30.0
2020-Aug-06 18:44 254 1 gusting 8 30.6
2020-Aug-06 18:39 268 4 gusting 10 30.6
2020-Aug-06 18:34 306 2 gusting 12 30.6
2020-Aug-06 18:29 272 5 gusting 11 31.1
2020-Aug-06 18:24 240 1 gusting 11 31.1
2020-Aug-06 18:19 259 6 gusting 13 31.7
2020-Aug-06 18:14 286 2 gusting 11 31.7
2020-Aug-06 18:09 261 3 gusting 11 32.2
2020-Aug-06 18:04 243 3 gusting 8 32.2
2020-Aug-06 17:59 255 5 gusting 12 32.2
2020-Aug-06 17:54 240 4 gusting 12 32.8
2020-Aug-06 17:49 245 3 gusting 12 32.8
2020-Aug-06 17:44 199 2 gusting 8 32.8
2020-Aug-06 17:39 241 6 gusting 12 33.3
2020-Aug-06 17:34 211 6 gusting 12 33.9
2020-Aug-06 17:29 221 2 gusting 10 34.4
2020-Aug-06 17:24 273 4 gusting 10 34.4
2020-Aug-06 17:19 280 2 gusting 10 35.0
2020-Aug-06 17:14 247 0 gusting 6 35.6
2020-Aug-06 17:09 241 2 gusting 8 36.1
2020-Aug-06 17:04 223 4 gusting 10 36.1
2020-Aug-06 16:59 231 1 gusting 8 36.1
2020-Aug-06 16:54 192 0 gusting 8 36.1
2020-Aug-06 16:49 248 4 gusting 11 36.1
2020-Aug-06 16:44 242 0 gusting 8 35.6
2020-Aug-06 16:39 228 1 gusting 10 35.6
2020-Aug-06 16:34 242 7 gusting 12 36.1
2020-Aug-06 16:29 231 3 gusting 10 36.1
2020-Aug-06 16:24 255 6 gusting 11 35.6
2020-Aug-06 16:19 226 2 gusting 12 35.6
2020-Aug-06 16:14 238 3 gusting 11 36.1
2020-Aug-06 16:09 264 6 gusting 15 36.1
2020-Aug-06 16:04 273 2 gusting 11 36.1
2020-Aug-06 15:59 211 2 gusting 11 36.1
2020-Aug-06 15:54 272 5 gusting 11 36.1
2020-Aug-06 15:49 263 4 gusting 11 36.1
2020-Aug-06 15:44 289 0 gusting 10 36.1
2020-Aug-06 15:39 243 1 gusting 10 36.1
2020-Aug-06 15:34 236 2 gusting 10 36.1
2020-Aug-06 15:29 249 4 gusting 10 36.1
2020-Aug-06 15:24 249 6 gusting 15 35.6
2020-Aug-06 15:19 268 4 gusting 8 35.6
2020-Aug-06 15:14 230 6 gusting 11 35.6
2020-Aug-06 15:09 218 5 gusting 13 35.6
2020-Aug-06 15:04 241 7 gusting 13 35.6
2020-Aug-06 14:59 289 4 gusting 8 35.6
2020-Aug-06 14:54 327 2 gusting 10 35.6
2020-Aug-06 14:49 269 1 gusting 11 35.6
2020-Aug-06 14:44 258 2 gusting 7 35.0
2020-Aug-06 14:39 284 6 gusting 13 35.0
2020-Aug-06 14:34 291 6 gusting 15 35.6
2020-Aug-06 14:29 267 2 gusting 12 35.6
2020-Aug-06 14:24 249 5 gusting 11 35.6
2020-Aug-06 14:19 263 4 gusting 12 35.6
2020-Aug-06 14:14 255 5 gusting 10 35.6
2020-Aug-06 14:09 324 1 gusting 8 35.6
2020-Aug-06 14:04 266 6 gusting 12 35.6
2020-Aug-06 13:59 278 3 gusting 8 35.6
2020-Aug-06 13:54 276 5 gusting 8 35.6
2020-Aug-06 13:49 249 4 gusting 17 35.0
2020-Aug-06 13:44 282 4 gusting 8 35.6
2020-Aug-06 13:39 293 7 gusting 12 35.6
2020-Aug-06 13:34 256 5 gusting 11 35.6
2020-Aug-06 13:29 228 5 gusting 10 35.6
2020-Aug-06 13:24 262 4 gusting 8 36.1
2020-Aug-06 13:19 268 6 gusting 13 36.1
2020-Aug-06 13:14 234 3 gusting 10 36.7
2020-Aug-06 13:09 244 2 gusting 13 36.1
2020-Aug-06 13:04 262 2 gusting 10 36.1
2020-Aug-06 12:59 226 2 gusting 7 36.1
2020-Aug-06 12:54 230 3 gusting 8 36.1
2020-Aug-06 12:49 236 4 gusting 7 35.6
2020-Aug-06 12:44 194 0 gusting 6 35.6
2020-Aug-06 12:39 260 3 gusting 10 35.6
2020-Aug-06 12:34 229 5 gusting 10 35.6
2020-Aug-06 12:29 251 3 gusting 8 35.6
2020-Aug-06 12:24 206 2 gusting 8 35.6
2020-Aug-06 12:19 267 5 gusting 8 35.6
2020-Aug-06 12:14 200 5 gusting 8 35.6
2020-Aug-06 12:09 253 0 gusting 6 35.0
2020-Aug-06 12:04 300 4 gusting 6 35.0
2020-Aug-06 11:59 257 5 gusting 5 35.0
2020-Aug-06 11:53 176 3 gusting 7 35.0
2020-Aug-06 11:48 173 2 gusting 6 35.6
2020-Aug-06 11:43 190 35.0
2020-Aug-06 11:38 246 0 gusting 7 34.4
2020-Aug-06 11:33 173 1 gusting 6 33.9
2020-Aug-06 11:28 243 0 gusting 4 33.3
2020-Aug-06 11:23 115 4 gusting 7 32.8
2020-Aug-06 11:18 096 32.8
2020-Aug-06 11:13 153 2 gusting 6 32.8
2020-Aug-06 11:08 163 0 gusting 5 32.2
2020-Aug-06 11:03 206 1 gusting 5 31.7